Montpelier, VT

10:47 AM EST on November 21, 2019 (GMT -0500)
Knapp State

Weather History for KMPV - August, 2019

Change the Weather History Date:

Saturday, August 17, 2019

  Actual Average Record
Temperature  
Mean Temperature 72 °F 65 °F  
Max Temperature 81 °F 77 °F 90 °F (1987)
Min Temperature 64 °F 54 °F 39 °F (1979)
Degree Days  
Heating Degree Days 0 2  
Month to date heating degree days 20 30  
Since 1 June heating degree days 173 191  
Since 1 July heating degree days 29 70  
Cooling Degree Days 8 2  
Month to date cooling degree days 27 50  
Year to date cooling degree days 185 218  
Since 1 June cooling degree days 184 208  
Growing Degree Days 22 (Base 50)    
Moisture  
Dew Point 65 °F    
Average Humidity 87    
Maximum Humidity 100    
Minimum Humidity 58    
Precipitation  
Precipitation 0.80 in 0.14 in 1.28 in (1956)
Month to date precipitation 3.07 2.48  
Year to date precipitation 33.62 23.27  
Sea Level Pressure  
Sea Level Pressure 30.04 in    
Wind  
Wind Speed 5 mph ()    
Max Wind Speed 15 mph    
Max Gust Speed 21 mph    
Visibility 9.3 miles    
Events Rain , Thunderstorm    
T = Trace of Precipitation, MM = Missing Value Source: Averaged Metar Reports

Daily Weather History Graph

Daily Weather History Graph

Search for Another Location

Airport or City:

Astronomy

Aug. 17, 2019 Rise Set
Actual Time 5:55 AM EDT 7:52 PM EDT
Civil Twilight 5:24 AM EDT 8:23 PM EDT
Nautical Twilight 4:46 AM EDT 9:01 PM EDT
Astronomical Twilight 4:04 AM EDT 9:42 PM EDT
Moon 9:15 PM EDT (8/17) 7:43 AM EDT (8/17)
Length of Visible Light 14h 58m
Length of Day
13h 56m
Waning Gibbous, 96% of the Moon is Illuminated
Aug 17
Waning Gibbous
Aug 23
Last Quarter
Aug 30
New
Sep 5
First Quarter
Sep 14
Full

Hourly Weather History & Observations

Time (EDT) Temp. Heat Index Dew Point Humidity Pressure Visibility Wind Dir Wind Speed Gust Speed Precip Events Conditions
12:51 AM 66.0 °F - 64.0 °F 93% 30.06 in 10.0 mi Calm Calm - N/A   Scattered Clouds
1:51 AM 64.9 °F - 64.0 °F 97% 30.07 in 10.0 mi Calm Calm - N/A   Mostly Cloudy
2:51 AM 66.0 °F - 64.9 °F 96% 30.06 in 10.0 mi Calm Calm - 0.05 in   Overcast
3:51 AM 66.0 °F - 64.0 °F 93% 30.06 in 10.0 mi SSW 6.9 mph - 0.19 in   Mostly Cloudy
4:11 AM 66.0 °F - 64.0 °F 93% 30.07 in 10.0 mi South 6.9 mph - N/A   Overcast
4:28 AM 66.0 °F - 64.9 °F 96% 30.07 in 10.0 mi South 3.5 mph - N/A   Overcast
4:39 AM 66.0 °F - 64.0 °F 93% 30.06 in 10.0 mi South 9.2 mph - 0.00 in Rain Light Rain
4:51 AM 66.0 °F - 64.0 °F 93% 30.05 in 10.0 mi South 6.9 mph - 0.00 in   Overcast
5:03 AM 66.0 °F - 64.0 °F 93% 30.07 in 10.0 mi South 6.9 mph - N/A   Overcast
5:18 AM 66.0 °F - 64.0 °F 93% 30.07 in 10.0 mi South 5.8 mph - N/A   Overcast
5:51 AM 66.0 °F - 64.0 °F 93% 30.06 in 10.0 mi South 8.1 mph - N/A   Overcast
6:14 AM 64.9 °F - 64.0 °F 97% 30.07 in 10.0 mi South 5.8 mph - N/A   Overcast
6:51 AM 66.0 °F - 64.0 °F 93% 30.06 in 10.0 mi South 4.6 mph - N/A   Overcast
7:51 AM 66.9 °F - 64.9 °F 93% 30.07 in 10.0 mi South 8.1 mph - N/A   Overcast
8:51 AM 69.1 °F - 66.0 °F 90% 30.06 in 10.0 mi South 11.5 mph - N/A   Overcast
9:20 AM 69.1 °F - 66.0 °F 90% 30.07 in 10.0 mi South 5.8 mph - N/A   Mostly Cloudy
9:51 AM 71.1 °F - 66.9 °F 87% 30.06 in 10.0 mi SSE 9.2 mph - N/A   Overcast
10:08 AM 72.0 °F - 66.9 °F 84% 30.07 in 10.0 mi SSE 8.1 mph - N/A   Overcast
10:33 AM 73.0 °F - 66.9 °F 81% 30.07 in 10.0 mi SSW 10.4 mph - N/A   Partly Cloudy
10:51 AM 73.9 °F - 68.0 °F 82% 30.06 in 10.0 mi South 10.4 mph - N/A   Clear
11:51 AM 75.9 °F - 68.0 °F 76% 30.05 in 10.0 mi South 10.4 mph - N/A   Scattered Clouds
12:51 PM 79.0 °F - 66.0 °F 64% 30.04 in 10.0 mi Variable 6.9 mph - N/A   Mostly Cloudy
1:51 PM 80.1 °F 81.7 °F 64.0 °F 58% 30.03 in 10.0 mi SSW 11.5 mph - N/A   Scattered Clouds
2:51 PM 79.0 °F - 64.0 °F 60% 30.01 in 10.0 mi Variable 6.9 mph - N/A   Mostly Cloudy
3:51 PM 81.0 °F 82.7 °F 64.9 °F 58% 30.00 in 10.0 mi SSW 4.6 mph - N/A   Scattered Clouds
4:51 PM 80.1 °F 81.9 °F 64.9 °F 60% 29.98 in 10.0 mi South 3.5 mph - N/A   Partly Cloudy
5:51 PM 75.9 °F - 69.1 °F 79% 29.99 in 10.0 mi Calm Calm - N/A Thunderstorm Overcast
6:22 PM 75.0 °F - 68.0 °F 79% 30.01 in 10.0 mi South 8.1 mph - N/A Thunderstorm Thunderstorm
6:51 PM 72.0 °F - 68.0 °F 87% 30.00 in 9.0 mi South 5.8 mph - 0.03 in Rain , Thunderstorm Light Rain
6:59 PM 71.1 °F - 68.0 °F 90% 30.04 in 3.0 mi WSW 12.7 mph 18.4 mph 0.16 in Rain Heavy Rain
7:05 PM 68.0 °F - 64.9 °F 90% 30.04 in 1.8 mi West 9.2 mph 20.7 mph 0.33 in Rain Heavy Rain
7:13 PM 66.9 °F - 64.0 °F 90% 30.04 in 2.0 mi Variable 4.6 mph - 0.43 in Rain , Thunderstorm Heavy Thunderstorms and Rain
7:23 PM 66.9 °F - 64.0 °F 90% 30.04 in 7.0 mi East 3.5 mph - 0.46 in Rain , Thunderstorm Light Thunderstorms and Rain
7:38 PM 66.9 °F - 63.0 °F 87% 30.04 in 10.0 mi SSE 4.6 mph - 0.47 in Rain , Thunderstorm Light Rain
8:51 PM 64.9 °F - 64.0 °F 97% 30.01 in 10.0 mi SSW 3.5 mph - 0.03 in   Clear
9:51 PM 66.0 °F - 64.0 °F 93% 30.04 in 10.0 mi SSE 3.5 mph - N/A   Clear
10:51 PM 64.9 °F - 64.0 °F 97% 30.03 in 10.0 mi Calm Calm - N/A   Overcast
11:35 PM 64.9 °F - 64.0 °F 97% 30.04 in 10.0 mi SSW 5.8 mph - N/A   Overcast
11:47 PM 64.4 °F - 64.4 °F 100% 30.04 in 10.0 mi Variable 3.5 mph - N/A   Overcast
11:51 PM 64.9 °F - 64.0 °F 97% 30.03 in 10.0 mi Variable 4.6 mph - N/A   Overcast